Regional Weather Roundup
Issued by NWS Sterling, VA

Home | Current Version | Previous Version | Text Only | Print | Product List | Glossary Off
Versions: 1 2 3 4 5 6 7 8 9 10 11 12 13 14 15 16 17 18 19 20 21 22 23 24 25 26 27 28 29 30 31 32 33 34 35 36 37 38 39 40 41 42 43 44 45 46 47 48 49 50

000
ASUS41 KLWX 022110
RWRLWX

REGIONAL WEATHER ROUNDUP
NATIONAL WEATHER SERVICE BALTIMORE MD/WASHINGTON DC
500 PM EDT SAT MAY 02 2015

Note: "FAIR" indicates few or no clouds below 12,000 feet
with no significant weather and/or obstructions to visibility.
 TC=TEMPERATURE CELSIUS

 * =Non NWS site. Station does not report precipitation (e.g. rain,
    snow, etc.), thunder, or fog.

DCZ001-MDZ009-015-VAZ040>042-051-053>054-022200-
WASHINGTON METRO

CITY           SKY/WX    TMP DP  RH WIND       PRES   REMARKS
WASHINGTON NAT PTSUNNY   74  43  32 N9        29.97F
DULLES         PTSUNNY   73  41  31 NW9       29.98F
ANDREWS AFB    CLOUDY    70  46  42 SE2       29.96F
FT BELVOIR     MOSUNNY   75  41  29 VRB6      29.97F
QUANTICO       MOSUNNY   70  52  52 S7        29.98F
COLLEGE PARK*  MOSUNNY   73  37  27 N7        29.96S
LEESBURG*      MOSUNNY   73  45  35 NW8       29.99F
MANASSAS*      MOSUNNY   73  39  29 N8        29.98F
GAITHERSBURG*  PTSUNNY   72  43  35 CALM      30.01F

$$

MDZ006>007-011-014-022200-
BALTIMORE METRO

CITY           SKY/WX    TMP DP  RH WIND       PRES   REMARKS
BWI AIRPORT    PTSUNNY   72  41  32 NW7       29.95F
MD SCIENCE CTR   N/A     73  45  36 MISG      29.96F
MARTIN STATE   PTSUNNY   68  52  56 SE8       29.97F
ANNAPOLIS      CLOUDY    67  46  47 S6        29.97S
FORT MEADE*    CLOUDY    72  39  30 NW5       29.98S

$$

MDZ012-015-019>023-022200-
MARYLAND EASTERN SHORE

CITY           SKY/WX    TMP DP  RH WIND       PRES   REMARKS
OCEAN CITY     SUNNY     52  45  77 E7        30.00F
SALISBURY      MOSUNNY   71  42  35 N6        29.97S
BAY BRIDGE AP*   N/A    N/A N/A N/A W6        29.97S
CAMBRIDGE*     SUNNY     72  43  35 N3        29.97F
EASTON*        MOSUNNY   73  48  40 CALM      30.00F

$$

MDZ017>025-022200-
SOUTHERN MARYLAND

CITY           SKY/WX    TMP DP  RH WIND       PRES   REMARKS
PATUXENT RIVER MOSUNNY   69  46  43 NE7       29.98F
ST INIGOES     SUNNY     70  43  37 VRB5      29.98F
LEONARDTOWN*   SUNNY     68  39  34 E7        30.00S

$$

MDZ003>005-022200-
NORTH CENTRAL MARYLAND

CITY           SKY/WX    TMP DP  RH WIND       PRES   REMARKS
FREDERICK*     PTSUNNY   72 N/A N/A CALM      30.00
HAGERSTOWN APT PTSUNNY   72  40  31 NW8       29.97F
WESTMINSTER*   PTSUNNY   70  39  32 SW3       29.97F

$$

MDZ501>502-022200-
WESTERN MARYLAND

CITY           SKY/WX    TMP DP  RH WIND       PRES   REMARKS
OAKLAND*       PTSUNNY   61  36  39 N10       30.06F
CUMBERLAND*    SUNNY     73  34  23 NW7       30.03S

$$

VAZ025>031-022200-
SHENANDOAH VALLEY

CITY           SKY/WX    TMP DP  RH WIND       PRES   REMARKS
WINCHESTER*    CLOUDY    72  30  21 W5        30.00S
FRONT ROYAL*   MOCLDY    70  39  32 CALM      29.99F
LURAY*         CLOUDY    72  43  35 S3        30.01S
NEW MARKET*    FAIR      69  38  31 CALM      30.00F
STAUNTON*      PTSUNNY   70  38  31 NW5       30.04F
WAYNESBORO*    MOCLDY    67  39  36 CALM      30.03F

$$

WVZ021-048>050-054>055-022200-
EASTERN WEST VIRGINIA PANHANDLE

CITY           SKY/WX    TMP DP  RH WIND       PRES   REMARKS
MARTINSBURG    CLOUDY    72  38  29 NW7       29.98F
PETERSBURG*    PTSUNNY   70  31  23 NW7G16    30.01F

$$

VAZ036>039-050-022200-
CENTRAL FOOTHILLS

CITY           SKY/WX    TMP DP  RH WIND       PRES   REMARKS
CHARLOTTESVILL CLOUDY    71  40  32 VRB5      30.00F
CULPEPER*      NOT AVBL
ORANGE*        MOSUNNY   72  39  30 CALM      30.01F
GORDONSVILLE*  CLOUDY    71  40  32 S3        30.00S
WARRENTON*     PTSUNNY   77  45  32 W6        29.99S

$$

VAZ055>057-022200-
NORTH AND CENTRAL PIEDMONT

CITY           SKY/WX    TMP DP  RH WIND       PRES   REMARKS
FREDERICKSBRG* MOSUNNY   75  44  32 N3        29.98S
STAFFORD*      PTSUNNY   73  38  28 W9        30.02S

$$

NCZ024-NYZ072-PAZ021-071-VAZ022-071-022200-
OTHER REGIONAL OBSERVATIONS

CITY           SKY/WX    TMP DP  RH WIND       PRES   REMARKS
NEW YORK CITY  SUNNY     59  42  53 S12G18    29.98R
PHILADELPHIA   PTSUNNY   73  41  31 S6        29.93F
PITTSBURGH     PTSUNNY   71  36  27 N9        30.01F
ROANOKE        PTSUNNY   68  40  35 VRB7      30.06F
RICHMOND       MOSUNNY   73  43  33 NW8       29.99F
RALEIGH        PTSUNNY   72  48  42 VRB5      30.03F

$$

ANZ530>537-022200-
MARINE OBSERVATIONS

STATION/POSITION TIME  TEMP    WIND        PRES
                       AIR SEA DIR/SP/G
                 (UTC) (F)     (DEG/KT/KT) (MB)
THOMAS PT LIGHT  2100   60 57  200/  9/ 10 1015.5F
BALT KEY BRIDGE  2000   65     110/ 10/ 10 1014.5F
COVE POINT       2000   62     320/  2/  3 1016.3F
LEWISETTA        2000   63 60              1015.5F
SOLOMONS ISLAND  2012      61                N/A
PINEY POINT      2000          190/  8/  9   N/A

$$




USA.gov is the U.S. government's official web portal to all federal, state and local government web resources and services.